Time,TemperatureF,DewpointF,PressureIn,WindDirection,WindDirectionDegrees,WindSpeedMPH,WindSpeedGustMPH,Humidity,HourlyPrecipIn,Conditions,Clouds,dailyrainin,SoftwareType,DateUTC
2013-01-16 00:02:00,11.0,4.0,30.83,SW,227,1.0,-999.0,72,-99.99,,,-99.99,,2013-01-16 07:02:00,
2013-01-16 00:12:00,11.0,4.0,30.83,SW,227,1.0,-999.0,72,-99.99,,,-99.99,,2013-01-16 07:12:00,
2013-01-16 00:22:00,12.0,4.0,30.80,South,181,1.0,-999.0,69,-99.99,,,-99.99,,2013-01-16 07:22:00,
2013-01-16 00:32:00,12.0,4.0,30.80,SSE,167,1.0,-999.0,69,-99.99,,,-99.99,,2013-01-16 07:32:00,
2013-01-16 00:42:00,12.0,4.0,30.80,SSE,167,1.0,-999.0,69,-99.99,,,-99.99,,2013-01-16 07:42:00,
2013-01-16 00:52:00,12.0,4.0,30.80,SSE,163,1.0,-999.0,69,-99.99,,,-99.99,,2013-01-16 07:52:00,
2013-01-16 01:02:00,11.0,3.0,30.80,SSE,160,2.0,-999.0,71,-99.99,,,-99.99,,2013-01-16 08:02:00,
2013-01-16 01:12:00,11.0,3.0,30.80,SSE,160,2.0,-999.0,71,-99.99,,,-99.99,,2013-01-16 08:12:00,
2013-01-16 01:22:00,11.0,3.0,30.80,ESE,110,2.0,-999.0,71,-99.99,,,-99.99,,2013-01-16 08:22:00,
2013-01-16 01:32:00,11.0,3.0,30.80,ESE,105,2.0,-999.0,71,-99.99,,,-99.99,,2013-01-16 08:32:00,
2013-01-16 01:42:00,11.0,3.0,30.80,ESE,105,2.0,-999.0,71,-99.99,,,-99.99,,2013-01-16 08:42:00,
2013-01-16 01:53:00,12.0,4.0,30.79,ESE,105,1.0,-999.0,70,-99.99,,,-99.99,,2013-01-16 08:53:00,
2013-01-16 02:02:00,11.0,3.0,30.81,ESE,105,0.0,-999.0,70,-99.99,,,-99.99,,2013-01-16 09:02:00,
2013-01-16 02:12:00,11.0,3.0,30.81,ESE,105,0.0,-999.0,70,-99.99,,,-99.99,,2013-01-16 09:12:00,
2013-01-16 02:22:00,10.0,3.0,30.81,ESE,105,0.0,-999.0,71,-99.99,,,-99.99,,2013-01-16 09:22:00,
2013-01-16 02:32:00,10.0,3.0,30.80,ESE,105,1.0,-999.0,73,-99.99,,,-99.99,,2013-01-16 09:32:00,
2013-01-16 02:42:00,10.0,3.0,30.80,ESE,105,1.0,-999.0,73,-99.99,,,-99.99,,2013-01-16 09:42:00,
2013-01-16 02:53:00,10.0,3.0,30.80,ESE,105,0.0,-999.0,72,-99.99,,,-99.99,,2013-01-16 09:53:00,
2013-01-16 03:02:00,10.0,3.0,30.80,ESE,105,0.0,-999.0,72,-99.99,,,-99.99,,2013-01-16 10:02:00,
2013-01-16 03:12:00,10.0,3.0,30.80,ESE,105,0.0,-999.0,72,-99.99,,,-99.99,,2013-01-16 10:12:00,
2013-01-16 03:22:00,10.0,3.0,30.83,SW,215,1.0,-999.0,72,-99.99,,,-99.99,,2013-01-16 10:22:00,
2013-01-16 03:32:00,10.0,3.0,30.80,South,188,0.0,-999.0,71,-99.99,,,-99.99,,2013-01-16 10:32:00,
2013-01-16 03:43:00,10.0,3.0,30.80,South,188,0.0,-999.0,71,-99.99,,,-99.99,,2013-01-16 10:43:00,
2013-01-16 03:53:00,10.0,3.0,30.78,South,188,0.0,-999.0,73,-99.99,,,-99.99,,2013-01-16 10:53:00,
2013-01-16 04:02:00,9.0,2.0,30.78,South,188,0.0,-999.0,74,-99.99,,,-99.99,,2013-01-16 11:02:00,
2013-01-16 04:12:00,9.0,2.0,30.78,South,188,0.0,-999.0,74,-99.99,,,-99.99,,2013-01-16 11:12:00,
2013-01-16 04:22:00,9.0,2.0,30.78,East,87,0.0,-999.0,74,-99.99,,,-99.99,,2013-01-16 11:22:00,
2013-01-16 04:32:00,9.0,3.0,30.75,East,87,0.0,-999.0,75,-99.99,,,-99.99,,2013-01-16 11:32:00,
2013-01-16 04:42:00,9.0,3.0,30.75,East,87,0.0,-999.0,75,-99.99,,,-99.99,,2013-01-16 11:42:00,
2013-01-16 04:53:00,9.0,2.0,30.75,East,87,0.0,-999.0,74,-99.99,,,-99.99,,2013-01-16 11:53:00,
2013-01-16 05:03:00,9.0,3.0,30.75,East,87,0.0,-999.0,77,-99.99,,,-99.99,,2013-01-16 12:03:00,
2013-01-16 05:13:00,9.0,3.0,30.75,East,87,0.0,-999.0,77,-99.99,,,-99.99,,2013-01-16 12:13:00,
2013-01-16 05:22:00,11.0,6.0,30.75,East,87,0.0,-999.0,78,-99.99,,,-99.99,,2013-01-16 12:22:00,
2013-01-16 05:33:00,13.0,7.0,30.74,East,87,0.0,-999.0,75,-99.99,,,-99.99,,2013-01-16 12:33:00,
2013-01-16 05:43:00,13.0,7.0,30.74,East,87,0.0,-999.0,75,-99.99,,,-99.99,,2013-01-16 12:43:00,
2013-01-16 05:53:00,14.0,7.0,30.73,East,88,1.0,-999.0,74,-99.99,,,-99.99,,2013-01-16 12:53:00,
2013-01-16 06:03:00,14.0,7.0,30.73,East,94,2.0,-999.0,74,-99.99,,,-99.99,,2013-01-16 13:03:00,
2013-01-16 06:12:00,14.0,7.0,30.73,East,94,2.0,-999.0,74,-99.99,,,-99.99,,2013-01-16 13:12:00,
2013-01-16 06:22:00,15.0,8.0,30.74,East,88,2.0,-999.0,74,-99.99,,,-99.99,,2013-01-16 13:22:00,
2013-01-16 06:33:00,15.0,8.0,30.73,ENE,72,1.0,-999.0,74,-99.99,,,-99.99,,2013-01-16 13:33:00,
2013-01-16 06:43:00,15.0,8.0,30.73,ENE,72,1.0,-999.0,74,-99.99,,,-99.99,,2013-01-16 13:43:00,
2013-01-16 06:53:00,16.0,9.0,30.73,WNW,294,1.0,-999.0,73,-99.99,,,-99.99,,2013-01-16 13:53:00,
2013-01-16 07:03:00,16.0,9.0,30.72,ESE,123,1.0,-999.0,73,-99.99,,,-99.99,,2013-01-16 14:03:00,
2013-01-16 07:12:00,16.0,9.0,30.72,ESE,123,1.0,-999.0,73,-99.99,,,-99.99,,2013-01-16 14:12:00,
2013-01-16 07:22:00,15.0,8.0,30.73,SE,126,1.0,-999.0,73,-99.99,,,-99.99,,2013-01-16 14:22:00,
2013-01-16 07:32:00,15.0,8.0,30.73,SSE,148,1.0,-999.0,74,-99.99,,,-99.99,,2013-01-16 14:32:00,
2013-01-16 07:42:00,15.0,8.0,30.73,SSE,148,1.0,-999.0,74,-99.99,,,-99.99,,2013-01-16 14:42:00,
2013-01-16 07:53:00,16.0,9.0,30.73,SE,133,2.0,-999.0,74,-99.99,,,-99.99,,2013-01-16 14:53:00,
2013-01-16 08:03:00,15.0,8.0,30.73,NW,319,1.0,-999.0,74,-99.99,,,-99.99,,2013-01-16 15:03:00,
2013-01-16 08:12:00,15.0,8.0,30.73,NW,319,1.0,-999.0,74,-99.99,,,-99.99,,2013-01-16 15:12:00,
2013-01-16 08:22:00,16.0,9.0,30.73,West,271,0.0,-999.0,74,-99.99,,,-99.99,,2013-01-16 15:22:00,
2013-01-16 08:33:00,17.0,10.0,30.74,WSW,237,1.0,-999.0,74,-99.99,,,-99.99,,2013-01-16 15:33:00,
2013-01-16 08:43:00,17.0,10.0,30.74,WSW,237,1.0,-999.0,74,-99.99,,,-99.99,,2013-01-16 15:43:00,
2013-01-16 08:53:00,17.0,10.0,30.72,West,265,0.0,-999.0,72,-99.99,,,-99.99,,2013-01-16 15:53:00,
2013-01-16 09:03:00,18.0,10.0,30.72,SW,229,1.0,-999.0,71,-99.99,,,-99.99,,2013-01-16 16:03:00,
2013-01-16 09:12:00,18.0,10.0,30.72,SW,229,1.0,-999.0,71,-99.99,,,-99.99,,2013-01-16 16:12:00,
2013-01-16 09:22:00,20.0,11.0,30.73,WSW,240,0.0,-999.0,69,-99.99,,,-99.99,,2013-01-16 16:22:00,
2013-01-16 09:33:00,22.0,12.0,30.71,WSW,240,0.0,-999.0,66,-99.99,,,-99.99,,2013-01-16 16:33:00,
2013-01-16 09:42:00,22.0,12.0,30.71,WSW,240,0.0,-999.0,66,-99.99,,,-99.99,,2013-01-16 16:42:00,
2013-01-16 09:53:00,23.0,12.0,30.72,SW,219,0.0,-999.0,62,-99.99,,,-99.99,,2013-01-16 16:53:00,
2013-01-16 10:02:00,25.0,13.0,30.71,SW,223,0.0,-999.0,59,-99.99,,,-99.99,,2013-01-16 17:02:00,
2013-01-16 10:12:00,25.0,13.0,30.71,SW,223,0.0,-999.0,59,-99.99,,,-99.99,,2013-01-16 17:12:00,
2013-01-16 10:22:00,26.0,13.0,30.72,West,271,0.0,-999.0,57,-99.99,,,-99.99,,2013-01-16 17:22:00,
2013-01-16 10:33:00,27.0,13.0,30.72,SW,221,1.0,-999.0,56,-99.99,,,-99.99,,2013-01-16 17:33:00,
2013-01-16 10:43:00,27.0,13.0,30.72,SW,221,1.0,-999.0,56,-99.99,,,-99.99,,2013-01-16 17:43:00,
2013-01-16 10:53:00,27.0,13.0,30.72,South,187,1.0,-999.0,55,-99.99,,,-99.99,,2013-01-16 17:53:00,
2013-01-16 11:02:00,27.0,13.0,30.71,SW,221,1.0,-999.0,55,-99.99,,,-99.99,,2013-01-16 18:02:00,
2013-01-16 11:12:00,27.0,13.0,30.71,SW,221,1.0,-999.0,55,-99.99,,,-99.99,,2013-01-16 18:12:00,
2013-01-16 11:23:00,27.0,13.0,30.70,West,263,0.0,-999.0,54,-99.99,,,-99.99,,2013-01-16 18:23:00,
2013-01-16 11:33:00,29.0,14.0,30.68,WSW,244,0.0,-999.0,52,-99.99,,,-99.99,,2013-01-16 18:33:00,
2013-01-16 11:42:00,29.0,14.0,30.68,WSW,244,0.0,-999.0,52,-99.99,,,-99.99,,2013-01-16 18:42:00,
2013-01-16 11:53:00,30.0,14.0,30.68,SW,236,1.0,-999.0,50,-99.99,,,-99.99,,2013-01-16 18:53:00,
2013-01-16 12:03:00,30.0,14.0,30.68,WSW,238,1.0,-999.0,50,-99.99,,,-99.99,,2013-01-16 19:03:00,
2013-01-16 12:12:00,30.0,14.0,30.68,WSW,238,1.0,-999.0,50,-99.99,,,-99.99,,2013-01-16 19:12:00,
2013-01-16 12:23:00,30.0,14.0,30.66,WSW,257,1.0,-999.0,51,-99.99,,,-99.99,,2013-01-16 19:23:00,
2013-01-16 12:33:00,30.0,14.0,30.66,West,271,2.0,-999.0,51,-99.99,,,-99.99,,2013-01-16 19:33:00,
2013-01-16 12:43:00,30.0,14.0,30.66,West,271,2.0,-999.0,51,-99.99,,,-99.99,,2013-01-16 19:43:00,
2013-01-16 12:53:00,31.0,14.0,30.66,West,274,1.0,-999.0,49,-99.99,,,-99.99,,2013-01-16 19:53:00,
2013-01-16 13:03:00,32.0,15.0,30.65,WSW,247,1.0,-999.0,49,-99.99,,,-99.99,,2013-01-16 20:03:00,
2013-01-16 13:12:00,32.0,15.0,30.65,WSW,247,1.0,-999.0,49,-99.99,,,-99.99,,2013-01-16 20:12:00,
2013-01-16 13:23:00,33.0,15.0,30.63,North,5,0.0,-999.0,46,-99.99,,,-99.99,,2013-01-16 20:23:00,
2013-01-16 13:33:00,33.0,15.0,30.64,West,278,1.0,-999.0,46,-99.99,,,-99.99,,2013-01-16 20:33:00,
2013-01-16 13:42:00,33.0,15.0,30.64,West,278,1.0,-999.0,46,-99.99,,,-99.99,,2013-01-16 20:42:00,
2013-01-16 13:53:00,32.0,15.0,30.63,WSW,250,1.0,-999.0,49,-99.99,,,-99.99,,2013-01-16 20:53:00,
2013-01-16 14:02:00,32.0,15.0,30.63,SW,216,1.0,-999.0,48,-99.99,,,-99.99,,2013-01-16 21:02:00,
2013-01-16 14:12:00,32.0,15.0,30.63,SW,216,1.0,-999.0,48,-99.99,,,-99.99,,2013-01-16 21:12:00,
2013-01-16 14:22:00,32.0,15.0,30.63,South,187,0.0,-999.0,49,-99.99,,,-99.99,,2013-01-16 21:22:00,
2013-01-16 14:33:00,32.0,15.0,30.62,SSW,195,1.0,-999.0,49,-99.99,,,-99.99,,2013-01-16 21:33:00,
2013-01-16 14:43:00,32.0,15.0,30.62,SSW,195,1.0,-999.0,49,-99.99,,,-99.99,,2013-01-16 21:43:00,
2013-01-16 14:53:00,32.0,15.0,30.61,SW,217,0.0,-999.0,49,-99.99,,,-99.99,,2013-01-16 21:53:00,
2013-01-16 15:02:00,31.0,15.0,30.61,West,261,1.0,-999.0,50,-99.99,,,-99.99,,2013-01-16 22:02:00,
2013-01-16 15:12:00,31.0,15.0,30.61,West,261,1.0,-999.0,50,-99.99,,,-99.99,,2013-01-16 22:12:00,
2013-01-16 15:22:00,31.0,14.0,30.61,West,265,0.0,-999.0,49,-99.99,,,-99.99,,2013-01-16 22:22:00,
2013-01-16 15:33:00,30.0,14.0,30.60,West,265,0.0,-999.0,50,-99.99,,,-99.99,,2013-01-16 22:33:00,
2013-01-16 15:43:00,30.0,14.0,30.60,West,265,0.0,-999.0,50,-99.99,,,-99.99,,2013-01-16 22:43:00,
2013-01-16 15:53:00,30.0,14.0,30.61,WSW,244,1.0,-999.0,51,-99.99,,,-99.99,,2013-01-16 22:53:00,
2013-01-16 16:02:00,29.0,14.0,30.61,WSW,254,1.0,-999.0,53,-99.99,,,-99.99,,2013-01-16 23:02:00,
2013-01-16 16:12:00,28.0,14.0,30.61,West,267,0.0,-999.0,55,-99.99,,,-99.99,,2013-01-16 23:12:00,
2013-01-16 16:23:00,28.0,14.0,30.61,West,267,0.0,-999.0,55,-99.99,,,-99.99,,2013-01-16 23:23:00,
2013-01-16 16:32:00,27.0,13.0,30.62,West,267,0.0,-999.0,56,-99.99,,,-99.99,,2013-01-16 23:32:00,
2013-01-16 16:42:00,27.0,13.0,30.62,West,267,0.0,-999.0,56,-99.99,,,-99.99,,2013-01-16 23:42:00,
2013-01-16 16:53:00,26.0,13.0,30.62,West,268,0.0,-999.0,57,-99.99,,,-99.99,,2013-01-16 23:53:00,
2013-01-16 17:02:00,25.0,12.0,30.62,East,90,0.0,-999.0,58,-99.99,,,-99.99,,2013-01-17 00:02:00,
2013-01-16 17:12:00,25.0,12.0,30.62,East,90,0.0,-999.0,58,-99.99,,,-99.99,,2013-01-17 00:12:00,
2013-01-16 17:22:00,25.0,13.0,30.62,East,87,0.0,-999.0,59,-99.99,,,-99.99,,2013-01-17 00:22:00,
2013-01-16 17:32:00,25.0,13.0,30.62,East,87,0.0,-999.0,59,-99.99,,,-99.99,,2013-01-17 00:32:00,
2013-01-16 17:42:00,25.0,13.0,30.62,East,87,0.0,-999.0,59,-99.99,,,-99.99,,2013-01-17 00:42:00,
2013-01-16 17:52:00,23.0,12.0,30.63,ESE,105,0.0,-999.0,61,-99.99,,,-99.99,,2013-01-17 00:52:00,
2013-01-16 18:02:00,22.0,11.0,30.63,NE,49,1.0,-999.0,63,-99.99,,,-99.99,,2013-01-17 01:02:00,
2013-01-16 18:12:00,22.0,11.0,30.63,NE,49,1.0,-999.0,63,-99.99,,,-99.99,,2013-01-17 01:12:00,
2013-01-16 18:22:00,21.0,11.0,30.63,NE,50,0.0,-999.0,64,-99.99,,,-99.99,,2013-01-17 01:22:00,
2013-01-16 18:32:00,21.0,11.0,30.63,NE,50,0.0,-999.0,65,-99.99,,,-99.99,,2013-01-17 01:32:00,
2013-01-16 18:42:00,21.0,11.0,30.63,NE,50,0.0,-999.0,65,-99.99,,,-99.99,,2013-01-17 01:42:00,
2013-01-16 18:52:00,20.0,11.0,30.63,NE,50,0.0,-999.0,66,-99.99,,,-99.99,,2013-01-17 01:52:00,
2013-01-16 19:02:00,20.0,11.0,30.63,NE,50,0.0,-999.0,66,-99.99,,,-99.99,,2013-01-17 02:02:00,
2013-01-16 19:12:00,20.0,11.0,30.63,NE,50,0.0,-999.0,66,-99.99,,,-99.99,,2013-01-17 02:12:00,
2013-01-16 19:22:00,18.0,9.0,30.64,NE,50,0.0,-999.0,66,-99.99,,,-99.99,,2013-01-17 02:22:00,
2013-01-16 19:32:00,17.0,8.0,30.63,NE,50,0.0,-999.0,66,-99.99,,,-99.99,,2013-01-17 02:32:00,
2013-01-16 19:43:00,17.0,8.0,30.63,NE,50,0.0,-999.0,66,-99.99,,,-99.99,,2013-01-17 02:43:00,
2013-01-16 19:52:00,17.0,8.0,30.63,NE,50,0.0,-999.0,66,-99.99,,,-99.99,,2013-01-17 02:52:00,
2013-01-16 20:02:00,16.0,7.0,30.63,NE,50,0.0,-999.0,68,-99.99,,,-99.99,,2013-01-17 03:02:00,
2013-01-16 20:12:00,16.0,7.0,30.63,NE,50,0.0,-999.0,68,-99.99,,,-99.99,,2013-01-17 03:12:00,
2013-01-16 20:22:00,15.0,7.0,30.63,NE,50,0.0,-999.0,69,-99.99,,,-99.99,,2013-01-17 03:22:00,
2013-01-16 20:32:00,15.0,7.0,30.63,NE,50,0.0,-999.0,70,-99.99,,,-99.99,,2013-01-17 03:32:00,
2013-01-16 20:42:00,15.0,7.0,30.63,NE,50,0.0,-999.0,70,-99.99,,,-99.99,,2013-01-17 03:42:00,
2013-01-16 20:52:00,13.0,5.0,30.63,NE,50,0.0,-999.0,69,-99.99,,,-99.99,,2013-01-17 03:52:00,
2013-01-16 21:02:00,12.0,4.0,30.63,NE,50,0.0,-999.0,70,-99.99,,,-99.99,,2013-01-17 04:02:00,
2013-01-16 21:12:00,11.0,4.0,30.64,NE,50,0.0,-999.0,73,-99.99,,,-99.99,,2013-01-17 04:12:00,
2013-01-16 21:22:00,11.0,4.0,30.64,NE,50,0.0,-999.0,73,-99.99,,,-99.99,,2013-01-17 04:22:00,
2013-01-16 21:32:00,11.0,4.0,30.64,NE,50,0.0,-999.0,73,-99.99,,,-99.99,,2013-01-17 04:32:00,
2013-01-16 21:42:00,11.0,4.0,30.64,NE,50,0.0,-999.0,73,-99.99,,,-99.99,,2013-01-17 04:42:00,
2013-01-16 21:52:00,10.0,3.0,30.63,NE,50,0.0,-999.0,74,-99.99,,,-99.99,,2013-01-17 04:52:00,
2013-01-16 22:04:00,9.0,3.0,30.63,NE,50,0.0,-999.0,76,-99.99,,,-99.99,,2013-01-17 05:04:00,
2013-01-16 22:12:00,9.0,3.0,30.63,NE,50,0.0,-999.0,76,-99.99,,,-99.99,,2013-01-17 05:12:00,
2013-01-16 22:22:00,9.0,3.0,30.65,NE,50,0.0,-999.0,77,-99.99,,,-99.99,,2013-01-17 05:22:00,
2013-01-16 22:33:00,9.0,4.0,30.65,NE,50,0.0,-999.0,78,-99.99,,,-99.99,,2013-01-17 05:33:00,
2013-01-16 22:42:00,9.0,4.0,30.65,NE,50,0.0,-999.0,78,-99.99,,,-99.99,,2013-01-17 05:42:00,
2013-01-16 22:53:00,8.0,3.0,30.65,NE,50,0.0,-999.0,78,-99.99,,,-99.99,,2013-01-17 05:53:00,
2013-01-16 23:02:00,8.0,3.0,30.66,NE,50,0.0,-999.0,78,-99.99,,,-99.99,,2013-01-17 06:02:00,
2013-01-16 23:12:00,8.0,3.0,30.67,NE,50,0.0,-999.0,79,-99.99,,,-99.99,,2013-01-17 06:12:00,
2013-01-16 23:22:00,8.0,3.0,30.67,NE,50,0.0,-999.0,79,-99.99,,,-99.99,,2013-01-17 06:22:00,
2013-01-16 23:32:00,7.0,2.0,30.67,NE,50,0.0,-999.0,79,-99.99,,,-99.99,,2013-01-17 06:32:00,
2013-01-16 23:42:00,7.0,2.0,30.67,NE,50,0.0,-999.0,79,-99.99,,,-99.99,,2013-01-17 06:42:00,
2013-01-16 23:52:00,7.0,2.0,30.68,NE,50,0.0,-999.0,80,-99.99,,,-99.99,,2013-01-17 06:52:00,